Weather in Hanimaadhoo

Maldives     6°44′42″N   73°10′08″E
temp.,
°C
wind,
m/s
gust,
m/s
humid.,
%
clouds,
%
prec.,
mm/h
press.,
hPa
HPBL,
m
10 august, wed
wed1023:00+27wnw6985100 0.1 1009929
02:00+27w698264 0.1 1007883
05:00+27w588170 0.1 1008893
08:00+27wnw598273 0.0 1009831
11:00+27wnw6880100 0.0 1009697
14:00+27w5780100 0.0 1006684
17:00+28w57825 0.0 1007700
20:00+27w478759 0.1 1008674
11 august, thu
thu1123:00+27wnw588695 0.3 1009761
02:00+27wnw6985100 0.0 1007752
05:00+27w5884100 0.2 1008622
08:00+27w5885100 0.1 1009682
11:00+28wsw4681100 0.4 1009657
14:00+28w4680100 0.0 1008721
17:00+28wnw468076 0.2 1008674
20:00+27w35845 0.4 1009361
12 august, fri
fri1223:00+27w34833 1.1 1010411
02:00+27w458029 0.1 1008536
05:00+26w448368 2.2 1009235
08:00+27w457992 1.6 1010415
11:00+27w457992 1.7 1010557
14:00+27w567945 0.3 1008637
17:00+28w467815 0.3 1008708
20:00+27w458398 0.1 1010633
13 august, sat
sat1323:00+27wnw4582100 0.1 1010583
02:00+27w558496 0.9 1008503
05:00+27w5584100 2.9 1009381
08:00+27w458195 1.3 1010359
11:00+27w447796 1.5 1010469
14:00+27w457611 0.0 1008616
17:00+28wnw447661 0.0 1008776
20:00+27wnw348110 0.0 1010595
14 august, sun
sun1423:00+27wnw337919 0.4 1011497
02:00+27wnw568293 0.0 1008579
05:00+27wnw458089 0.0 1008682
08:00+27wnw347989 0.0 1011644
11:00+27wnw337971 0.0 1011534
14:00+27wnw347852 0.0 1009611
17:00+27nw3476100 0.0 1009666
20:00+27nw3480100 0.0 1010605